Weather Service Report


178 
ASUS46 KSTO 222015
RWRCA 

NORTHERN AND CENTRAL CA REGIONAL WEATHER ROUNDUP
NATIONAL WEATHER SERVICE SACRAMENTO CA 
100 PM PDT THU JUN 22 2017

NOTE: FAIR INDICATES FEW OR NO CLOUDS BELOW 12,000 FEET WITH NO
SIGNIFICANT WEATHER AND/OR OBSTRUCTIONS TO VISIBILITY.

CAZ001-003-222100-
NORTHWEST AREA
  
CITY           SKY/WX    TMP DP  RH WIND       PRES   REMARKS
CRESCENT CITY  SUNNY     62  49  62 N14G24    29.88F                  
UKIAH          SUNNY    103  54  19 SE5       29.71F HX 101           
$$

CAZ006-505>513-222100-
BAY AREA
  
CITY           SKY/WX    TMP DP  RH WIND       PRES   REMARKS
SANTA ROSA     SUNNY     91  60  35 S10       29.71S HX  90           
SAN RAFAEL     N/A       87  MM  MM MISG
NAPA           SUNNY     89  61  38 S9        29.73S                  
CONCORD        SUNNY    100  52  19 VRB5      29.71S HX  97           
OAKLAND CITY   N/A      MM  MM  MM MISG
OAKLAND        SUNNY     83  63  50 NW13      29.73F                  
SAN FRAN CITY  N/A       67  MM  61 MISG
SAN FRAN ARPT  SUNNY     80  55  42 NW13      29.73F                  
LIVERMORE      SUNNY    102  47  15 VRB3      29.70F HX  98           
HAYWARD        SUNNY     88  57  34 W8        29.72F                  
REDWOOD CITY   N/A       86  MM  46 MISG
MOFFETT ARPT   SUNNY     89  64  43 N8        29.73S HX  90           
SAN JOSE ARPT  SUNNY     95  61  32 NW8       29.71F HX  95           
$$
CAZ034-037-514>518-222100-
CENTRAL COAST
  
CITY           SKY/WX    TMP DP  RH WIND       PRES   REMARKS
WATSONVILLE    SUNNY     72  57  59 W10       29.79R                  
SALINAS        SUNNY     77  57  50 W12       29.77S                  
MONTEREY       SUNNY     72  55  55 W5        29.79S                  
SAN LUIS OBISP SUNNY     75  56  51 SW8       29.81R                  
SANTA MARIA    SUNNY     73  58  59 NW9       29.82R                  
$$
CAZ015-016-222100-
NORTHERN SACRAMENTO VALLEY
  
CITY           SKY/WX    TMP DP  RH WIND       PRES   REMARKS
REDDING        SUNNY    102  33   9 N25G37    29.77F HX  96           
RED BLUFF      SUNNY    104  36   9 N18G28    29.75F HX  98           
OROVILLE       SUNNY    100  53  20 NW14G23   29.70F HX  98           
$$
CAZ016>018-222100-
SOUTHERN SACRAMENTO VALLEY
  
CITY           SKY/WX    TMP DP  RH WIND       PRES   REMARKS
BEALE AFB      SUNNY    101  55  21 W12       29.68S HX  99           
LINCOLN        FAIR     100  43  14 NW9       29.69S HX  96           
MARYSVILLE     SUNNY    101  48  16 N17G28    29.69F HX  97           
SAC INTL ARPT  SUNNY    101  52  19 N10       29.69F HX  98           
MATHER AIRPORT SUNNY    100  48  17 NW8       29.69S HX  97           
DOWNTOWN SAC   N/A      101  MM  MM MISG
SAC EXEC ARPT  SUNNY    102  53  19 N8        29.69F HX 100           
VACAVILLE      SUNNY    105  43  12 N16G22    29.71S HX 100           
$$
CAZ019>021-222100-
SAN JOAQUIN VALLEY
  
CITY           SKY/WX    TMP DP  RH WIND       PRES   REMARKS
STOCKTON       SUNNY    100  59  25 W8        29.69F HX 100           
MODESTO        SUNNY    100  52  19 W12       29.69F HX  97           
MERCED         SUNNY    100  63  29 NW9       29.70S HX 102           
LEMOORE        SUNNY    103  65  29 N8        29.70F HX 106           
FRESNO         SUNNY    103  62  26 E3        29.71S HX 105           
HANFORD        SUNNY    103  66  30 NW7       29.70F HX 107           
PORTERVILLE      N/A    103  68  32 W9        29.72S HX 109           
BAKERSFIELD    SUNNY    104  63  26 W9        29.70F HX 106           
$$
CAZ011-012-071-222100-
NORTHERN MOUNTAINS
  
CITY           SKY/WX    TMP DP  RH WIND       PRES   REMARKS
YREKA          SUNNY     87  32  14 MISG      30.06F                  
MOUNT SHASTA   SUNNY     84  47  27 NW6       30.07F                  
ALTURAS        SUNNY     82  35  18 VRB6      30.14F                  
$$
CAZ011-012-071-222100-
SIERRA NEVADA MTNS
  
CITY           SKY/WX    TMP DP  RH WIND       PRES   REMARKS
BLUE CANYON    SUNNY     86  43  22 VRB5      30.12R                  
TAHOE VLY ARPT SUNNY     80  39  23 VRB3      30.20S                  
MAMMOTH LAKES  FAIR      85  35  16 SE6       30.24S                  
$$
  

Return to Home page


Western Regional Climate Center, wrcc@dri.edu